QPF
0.01 0.02 0.01 0.01 0.01 0.01 0.01 0.01 0.01 0.01 0.01 0.02 0.02 0.02 0.01 0.01 0.02 0.02 0.01 0.01 0.02 0.02 0.01 0.01 0.01 0.02 0.02 0.02 0.02 0.02 0.03 0.04 0.05 0.05 0.05 0.03 0.02 0.02 0.02 0.01 0.02 0.03 0.04 0.04
0.02 0.01 0.01 0.01 0.01 0.01 0.01 0.01 0.00 0.01 0.01 0.02 0.03 0.02 0.02 0.02 0.02 0.02 0.02 0.02 0.02 0.02 0.02 0.02 0.03 0.02 0.02 0.02 0.02 0.03 0.03 0.04 0.04 0.04 0.04 0.03 0.02 0.02 0.01 0.02 0.02 0.03 0.04 0.04
0.01 0.01 0.02 0.02 0.02 0.01 0.01 0.01 0.01 0.01 0.01 0.01 0.02 0.02 0.02 0.02 0.02 0.02 0.02 0.01 0.01 0.02 0.03 0.03 0.03 0.02 0.02 0.02 0.02 0.03 0.02 0.03 0.04 0.04 0.03 0.03 0.03 0.02 0.02 0.02 0.02 0.03 0.03 0.03
0.01 0.01 0.01 0.01 0.01 0.01 0.01 0.01 0.01 0.01 0.01 0.01 0.02 0.02 0.03 0.03 0.02 0.01 0.01 0.01 0.01 0.02 0.02 0.04 0.04 0.03 0.03 0.02 0.02 0.02 0.02 0.02 0.03 0.03 0.03 0.03 0.03 0.03 0.03 0.02 0.02 0.01 0.02 0.03
0.02 0.01 0.01 0.00 0.01 0.01 0.01 0.01 0.01 0.01 0.01 0.02 0.02 0.03 0.04 0.03 0.02 0.01 0.02 0.01 0.01 0.02 0.02 0.03 0.02 0.02 0.02 0.02 0.02 0.03 0.03 0.03 0.03 0.04 0.04 0.03 0.03 0.03 0.03 0.02 0.01 0.01 0.01 0.02
0.02 0.04 0.03 0.02 0.01 0.01 0.02 0.02 0.01 0.01 0.02 0.02 0.02 0.03 0.03 0.03 0.03 0.02 0.02 0.01 0.01 0.01 0.02 0.02 0.02 0.02 0.03 0.03 0.03 0.03 0.04 0.05 0.06 0.05 0.04 0.03 0.03 0.03 0.03 0.02 0.01 0.01 0.01 0.02
0.03 0.04 0.04 0.03 0.02 0.02 0.02 0.02 0.02 0.02 0.03 0.03 0.03 0.02 0.01 0.01 0.02 0.02 0.03 0.02 0.01 0.01 0.01 0.02 0.02 0.02 0.02 0.02 0.02 0.02 0.03 0.04 0.05 0.06 0.06 0.04 0.03 0.02 0.02 0.01 0.02 0.02 0.02 0.02
0.03 0.02 0.03 0.04 0.05 0.03 0.02 0.01 0.02 0.02 0.03 0.03 0.03 0.03 0.02 0.02 0.01 0.02 0.03 0.03 0.02 0.02 0.02 0.02 0.01 0.01 0.02 0.01 0.01 0.01 0.02 0.02 0.03 0.04 0.06 0.06 0.03 0.01 0.01 0.01 0.01 0.01 0.03 0.02
0.02 0.02 0.02 0.03 0.06 0.06 0.04 0.03 0.03 0.04 0.04 0.04 0.03 0.03 0.02 0.02 0.01 0.01 0.02 0.04 0.04 0.04 0.03 0.02 0.02 0.01 0.01 0.01 0.02 0.02 0.02 0.03 0.03 0.04 0.05 0.07 0.04 0.01 0.01 0.02 0.02 0.03 0.03 0.03
0.03 0.04 0.04 0.04 0.04 0.04 0.05 0.04 0.03 0.04 0.04 0.03 0.02 0.01 0.01 0.01 0.01 0.01 0.02 0.05 0.07 0.05 0.04 0.03 0.02 0.02 0.02 0.02 0.02 0.03 0.03 0.03 0.03 0.04 0.04 0.05 0.06 0.02 0.02 0.03 0.03 0.03 0.03 0.04
0.03 0.04 0.04 0.05 0.04 0.03 0.03 0.04 0.04 0.05 0.04 0.03 0.02 0.01 0.01 0.01 0.02 0.02 0.02 0.04 0.07 0.07 0.06 0.05 0.03 0.02 0.02 0.02 0.02 0.03 0.03 0.02 0.02 0.03 0.04 0.04 0.05 0.03 0.02 0.02 0.04 0.04 0.03 0.03
0.02 0.02 0.03 0.03 0.03 0.03 0.04 0.04 0.03 0.03 0.03 0.03 0.02 0.02 0.01 0.01 0.01 0.01 0.02 0.04 0.07 0.08 0.07 0.06 0.05 0.04 0.04 0.03 0.02 0.02 0.02 0.02 0.02 0.03 0.04 0.04 0.05 0.04 0.04 0.04 0.05 0.06 0.06 0.05
0.01 0.01 0.01 0.02 0.03 0.03 0.04 0.04 0.03 0.03 0.02 0.02 0.02 0.02 0.01 0.02 0.02 0.01 0.01 0.02 0.04 0.07 0.08 0.08 0.07 0.08 0.07 0.05 0.03 0.03 0.02 0.02 0.02 0.02 0.02 0.02 0.03 0.04 0.05 0.05 0.05 0.05 0.07 0.07
0.01 0.01 0.01 0.01 0.02 0.02 0.03 0.05 0.05 0.04 0.03 0.03 0.03 0.02 0.02 0.02 0.02 0.02 0.01 0.00 0.01 0.02 0.05 0.04 0.05 0.06 0.06 0.06 0.05 0.04 0.03 0.04 0.03 0.03 0.03 0.03 0.03 0.03 0.03 0.03 0.04 0.04 0.06 0.09
0.01 0.00 0.00 0.00 0.01 0.01 0.03 0.04 0.05 0.05 0.04 0.04 0.03 0.02 0.02 0.02 0.01 0.01 0.01 0.01 0.01 0.01 0.02 0.02 0.03 0.03 0.03 0.04 0.05 0.05 0.05 0.05 0.04 0.04 0.04 0.05 0.05 0.04 0.04 0.04 0.03 0.03 0.04 0.07
0.01 0.01 0.00 0.00 0.01 0.01 0.03 0.04 0.05 0.05 0.05 0.04 0.05 0.04 0.04 0.02 0.01 0.01 0.01 0.02 0.02 0.02 0.02 0.02 0.03 0.03 0.03 0.03 0.04 0.04 0.05 0.05 0.05 0.04 0.04 0.04 0.05 0.05 0.04 0.04 0.04 0.04 0.03 0.05
0.02 0.02 0.01 0.01 0.02 0.03 0.04 0.04 0.05 0.05 0.05 0.03 0.03 0.04 0.04 0.03 0.02 0.01 0.02 0.02 0.03 0.03 0.03 0.03 0.03 0.04 0.04 0.04 0.03 0.03 0.04 0.04 0.04 0.04 0.04 0.03 0.04 0.04 0.03 0.03 0.04 0.05 0.04 0.05
0.03 0.02 0.03 0.03 0.05 0.06 0.06 0.05 0.06 0.06 0.04 0.03 0.03 0.04 0.04 0.04 0.03 0.02 0.02 0.03 0.03 0.03 0.03 0.04 0.04 0.04 0.06 0.05 0.03 0.03 0.03 0.03 0.02 0.03 0.04 0.04 0.03 0.03 0.03 0.03 0.03 0.04 0.04 0.05
0.03 0.03 0.04 0.05 0.07 0.08 0.07 0.05 0.04 0.03 0.02 0.02 0.01 0.02 0.03 0.04 0.04 0.03 0.02 0.03 0.03 0.04 0.04 0.04 0.05 0.06 0.06 0.07 0.06 0.04 0.03 0.03 0.02 0.02 0.01 0.02 0.02 0.02 0.03 0.03 0.04 0.03 0.04 0.04
0.05 0.05 0.04 0.03 0.03 0.04 0.04 0.03 0.02 0.01 0.01 0.01 0.00 0.01 0.03 0.04 0.05 0.04 0.04 0.03 0.04 0.04 0.04 0.04 0.05 0.06 0.06 0.05 0.07 0.06 0.05 0.04 0.03 0.02 0.02 0.02 0.01 0.01 0.02 0.02 0.03 0.03 0.03 0.03
0.04 0.05 0.03 0.02 0.01 0.01 0.01 0.01 0.01 0.01 0.01 0.01 0.01 0.01 0.02 0.03 0.04 0.04 0.03 0.02 0.02 0.03 0.02 0.03 0.03 0.04 0.05 0.05 0.06 0.06 0.04 0.04 0.04 0.03 0.02 0.02 0.02 0.02 0.02 0.02 0.02 0.03 0.03 0.03
0.02 0.03 0.03 0.01 0.01 0.01 0.01 0.01 0.00 0.00 0.00 0.01 0.01 0.01 0.02 0.03 0.03 0.03 0.02 0.01 0.02 0.02 0.02 0.02 0.02 0.03 0.04 0.05 0.05 0.04 0.03 0.03 0.03 0.03 0.03 0.03 0.01 0.01 0.01 0.01 0.02 0.03 0.04 0.04
0.01 0.02 0.01 0.01 0.01 0.01 0.01 0.01 0.01 0.00 0.01 0.01 0.02 0.02 0.02 0.03 0.03 0.02 0.01 0.01 0.01 0.01 0.01 0.02 0.02 0.02 0.03 0.03 0.04 0.04 0.04 0.04 0.03 0.02 0.04 0.06 0.04 0.02 0.02 0.02 0.02 0.03 0.04 0.06
0.00 0.01 0.01 0.01 0.01 0.01 0.01 0.01 0.01 0.01 0.01 0.01 0.01 0.01 0.01 0.02 0.04 0.03 0.01 0.01 0.01 0.01 0.01 0.01 0.01 0.01 0.02 0.03 0.03 0.04 0.03 0.03 0.02 0.02 0.03 0.05 0.05 0.05 0.04 0.04 0.05 0.04 0.04 0.05
0.00 0.00 0.00 0.00 0.00 0.00 0.00 0.00 0.00 0.01 0.01 0.01 0.01 0.02 0.02 0.03 0.05 0.05 0.02 0.01 0.01 0.01 0.01 0.01 0.01 0.01 0.02 0.02 0.02 0.02 0.02 0.02 0.03 0.02 0.03 0.03 0.04 0.05 0.06 0.06 0.05 0.04 0.04 0.05
0.00 0.00 0.00 0.00 0.00 0.00 0.00 0.00 0.00 0.01 0.01 0.02 0.02 0.03 0.04 0.04 0.04 0.06 0.04 0.03 0.02 0.02 0.02 0.01 0.01 0.01 0.01 0.01 0.01 0.01 0.01 0.01 0.02 0.02 0.03 0.03 0.04 0.05 0.06 0.06 0.06 0.05 0.05 0.05
0.00 0.00 0.01 0.00 0.00 0.00 0.00 0.00 0.00 0.01 0.01 0.02 0.03 0.05 0.06 0.06 0.05 0.06 0.05 0.04 0.04 0.04 0.03 0.03 0.02 0.01 0.01 0.01 0.01 0.01 0.01 0.01 0.01 0.01 0.01 0.02 0.02 0.03 0.04 0.04 0.04 0.04 0.04 0.04
MSLP
1001.14 1001.42 1001.79 1002.25 1002.76 1003.27 1003.76 1004.17 1004.50 1004.71 1004.83 1004.88 1004.87 1004.85 1004.84 1004.87 1004.96 1005.10 1005.30 1005.55 1005.84 1006.18 1006.55 1006.96 1007.40 1007.87 1008.35 1008.84 1009.31 1009.73 1010.10 1010.39 1010.60 1010.74 1010.80 1010.83 1010.85 1010.88 1010.95 1011.07 1011.24 1011.47 1011.73 1012.02
1001.46 1001.65 1001.89 1002.17 1002.48 1002.80 1003.12 1003.42 1003.70 1003.95 1004.18 1004.39 1004.59 1004.79 1004.99 1005.20 1005.40 1005.61 1005.81 1006.02 1006.23 1006.46 1006.71 1007.01 1007.35 1007.73 1008.14 1008.57 1008.99 1009.37 1009.69 1009.94 1010.10 1010.19 1010.23 1010.25 1010.27 1010.32 1010.43 1010.60 1010.83 1011.13 1011.46 1011.81
1001.94 1002.05 1002.16 1002.28 1002.41 1002.55 1002.72 1002.91 1003.15 1003.42 1003.74 1004.09 1004.48 1004.87 1005.26 1005.63 1005.95 1006.22 1006.43 1006.60 1006.74 1006.87 1007.01 1007.19 1007.43 1007.71 1008.04 1008.39 1008.74 1009.06 1009.32 1009.51 1009.62 1009.68 1009.69 1009.69 1009.71 1009.78 1009.92 1010.14 1010.43 1010.78 1011.17 1011.57
1002.56 1002.60 1002.59 1002.57 1002.53 1002.52 1002.55 1002.65 1002.84 1003.12 1003.51 1003.98 1004.51 1005.07 1005.62 1006.12 1006.55 1006.89 1007.13 1007.28 1007.37 1007.43 1007.49 1007.58 1007.72 1007.91 1008.15 1008.42 1008.69 1008.93 1009.12 1009.24 1009.31 1009.31 1009.28 1009.26 1009.26 1009.33 1009.48 1009.71 1010.03 1010.41 1010.83 1011.27
1003.31 1003.28 1003.18 1003.03 1002.85 1002.69 1002.60 1002.61 1002.75 1003.03 1003.45 1004.00 1004.64 1005.33 1006.00 1006.63 1007.15 1007.56 1007.85 1008.02 1008.10 1008.13 1008.15 1008.18 1008.25 1008.37 1008.54 1008.73 1008.92 1009.09 1009.20 1009.26 1009.24 1009.18 1009.10 1009.02 1008.98 1009.01 1009.13 1009.35 1009.65 1010.03 1010.45 1010.89
1004.19 1004.10 1003.91 1003.64 1003.34 1003.07 1002.87 1002.79 1002.87 1003.12 1003.56 1004.15 1004.85 1005.62 1006.39 1007.10 1007.71 1008.20 1008.55 1008.77 1008.88 1008.92 1008.94 1008.96 1009.00 1009.09 1009.21 1009.34 1009.47 1009.56 1009.60 1009.57 1009.48 1009.34 1009.17 1009.01 1008.90 1008.85 1008.90 1009.05 1009.30 1009.63 1010.02 1010.44
1005.21 1005.06 1004.79 1004.42 1004.02 1003.64 1003.35 1003.18 1003.20 1003.41 1003.83 1004.41 1005.14 1005.94 1006.76 1007.54 1008.22 1008.78 1009.20 1009.48 1009.66 1009.76 1009.82 1009.86 1009.92 1010.01 1010.10 1010.20 1010.28 1010.31 1010.28 1010.17 1009.99 1009.75 1009.48 1009.23 1009.01 1008.86 1008.80 1008.85 1009.01 1009.25 1009.58 1009.95
1006.35 1006.15 1005.81 1005.37 1004.89 1004.42 1004.04 1003.81 1003.75 1003.91 1004.27 1004.82 1005.52 1006.32 1007.15 1007.95 1008.67 1009.29 1009.78 1010.15 1010.41 1010.59 1010.72 1010.83 1010.93 1011.03 1011.13 1011.21 1011.25 1011.23 1011.13 1010.95 1010.68 1010.35 1009.99 1009.61 1009.28 1009.01 1008.83 1008.75 1008.79 1008.93 1009.16 1009.46
1007.62 1007.37 1006.97 1006.47 1005.93 1005.40 1004.96 1004.65 1004.53 1004.61 1004.90 1005.39 1006.03 1006.78 1007.58 1008.38 1009.12 1009.78 1010.33 1010.77 1011.12 1011.39 1011.60 1011.77 1011.93 1012.06 1012.17 1012.24 1012.26 1012.19 1012.04 1011.79 1011.45 1011.04 1010.58 1010.11 1009.66 1009.27 1008.96 1008.76 1008.67 1008.69 1008.82 1009.04
1008.97 1008.67 1008.23 1007.70 1007.11 1006.55 1006.06 1005.70 1005.51 1005.51 1005.72 1006.12 1006.69 1007.37 1008.11 1008.87 1009.61 1010.28 1010.87 1011.38 1011.79 1012.14 1012.42 1012.66 1012.85 1013.01 1013.13 1013.19 1013.18 1013.08 1012.88 1012.58 1012.19 1011.71 1011.18 1010.63 1010.09 1009.60 1009.19 1008.87 1008.66 1008.57 1008.60 1008.74
1010.33 1010.00 1009.53 1008.98 1008.38 1007.79 1007.28 1006.89 1006.65 1006.59 1006.72 1007.03 1007.50 1008.09 1008.76 1009.47 1010.17 1010.84 1011.45 1011.99 1012.45 1012.85 1013.18 1013.45 1013.67 1013.83 1013.94 1013.98 1013.93 1013.80 1013.56 1013.23 1012.79 1012.28 1011.72 1011.12 1010.53 1009.97 1009.48 1009.07 1008.77 1008.59 1008.52 1008.57
1011.62 1011.26 1010.78 1010.23 1009.64 1009.06 1008.55 1008.14 1007.87 1007.76 1007.82 1008.05 1008.43 1008.93 1009.53 1010.17 1010.83 1011.48 1012.09 1012.64 1013.12 1013.53 1013.87 1014.15 1014.35 1014.49 1014.57 1014.56 1014.47 1014.30 1014.03 1013.67 1013.23 1012.71 1012.14 1011.53 1010.93 1010.35 1009.81 1009.35 1008.98 1008.72 1008.57 1008.54
1012.77 1012.39 1011.91 1011.37 1010.81 1010.26 1009.77 1009.37 1009.09 1008.95 1008.96 1009.12 1009.43 1009.86 1010.38 1010.97 1011.59 1012.20 1012.79 1013.33 1013.80 1014.20 1014.52 1014.77 1014.93 1015.02 1015.03 1014.97 1014.83 1014.61 1014.31 1013.94 1013.49 1012.99 1012.44 1011.86 1011.27 1010.69 1010.15 1009.66 1009.24 1008.92 1008.70 1008.58
1013.72 1013.32 1012.85 1012.34 1011.82 1011.31 1010.86 1010.49 1010.22 1010.07 1010.06 1010.18 1010.44 1010.81 1011.28 1011.82 1012.39 1012.98 1013.54 1014.05 1014.50 1014.86 1015.14 1015.33 1015.43 1015.44 1015.38 1015.24 1015.04 1014.77 1014.45 1014.06 1013.63 1013.15 1012.63 1012.09 1011.53 1010.97 1010.43 1009.93 1009.48 1009.11 1008.82 1008.62
1014.45 1014.04 1013.59 1013.12 1012.65 1012.20 1011.80 1011.47 1011.22 1011.09 1011.07 1011.17 1011.40 1011.73 1012.17 1012.67 1013.21 1013.76 1014.29 1014.78 1015.19 1015.51 1015.73 1015.85 1015.87 1015.81 1015.66 1015.45 1015.18 1014.86 1014.51 1014.11 1013.69 1013.23 1012.74 1012.23 1011.70 1011.16 1010.62 1010.10 1009.62 1009.19 1008.84 1008.56
1014.99 1014.58 1014.15 1013.72 1013.30 1012.92 1012.57 1012.29 1012.09 1011.98 1011.96 1012.06 1012.28 1012.59 1013.00 1013.48 1013.99 1014.52 1015.02 1015.47 1015.84 1016.11 1016.27 1016.33 1016.28 1016.14 1015.92 1015.63 1015.30 1014.94 1014.55 1014.14 1013.71 1013.26 1012.78 1012.28 1011.76 1011.21 1010.66 1010.11 1009.58 1009.09 1008.67 1008.31
1015.39 1014.99 1014.59 1014.20 1013.85 1013.52 1013.24 1013.01 1012.85 1012.76 1012.77 1012.87 1013.08 1013.38 1013.76 1014.22 1014.71 1015.20 1015.67 1016.09 1016.42 1016.65 1016.76 1016.76 1016.65 1016.45 1016.17 1015.83 1015.45 1015.04 1014.62 1014.18 1013.73 1013.27 1012.77 1012.25 1011.70 1011.12 1010.52 1009.91 1009.32 1008.76 1008.25 1007.83
1015.73 1015.34 1014.98 1014.65 1014.35 1014.08 1013.86 1013.68 1013.55 1013.50 1013.51 1013.62 1013.82 1014.10 1014.46 1014.88 1015.34 1015.80 1016.24 1016.62 1016.91 1017.10 1017.17 1017.13 1016.98 1016.73 1016.41 1016.03 1015.62 1015.18 1014.72 1014.25 1013.77 1013.26 1012.72 1012.14 1011.53 1010.87 1010.19 1009.50 1008.82 1008.18 1007.61 1007.12
1016.07 1015.71 1015.39 1015.12 1014.88 1014.67 1014.50 1014.36 1014.27 1014.23 1014.26 1014.36 1014.53 1014.79 1015.11 1015.49 1015.90 1016.31 1016.70 1017.04 1017.29 1017.44 1017.48 1017.42 1017.24 1016.98 1016.64 1016.25 1015.81 1015.35 1014.86 1014.35 1013.82 1013.25 1012.64 1011.98 1011.26 1010.51 1009.72 1008.93 1008.16 1007.43 1006.79 1006.26
1016.46 1016.15 1015.88 1015.66 1015.48 1015.33 1015.21 1015.11 1015.05 1015.02 1015.04 1015.11 1015.26 1015.47 1015.74 1016.05 1016.40 1016.75 1017.07 1017.35 1017.56 1017.68 1017.70 1017.61 1017.43 1017.17 1016.83 1016.44 1016.00 1015.53 1015.02 1014.47 1013.89 1013.25 1012.55 1011.79 1010.97 1010.11 1009.21 1008.32 1007.45 1006.65 1005.96 1005.40
1016.91 1016.65 1016.45 1016.29 1016.17 1016.07 1015.99 1015.93 1015.88 1015.86 1015.86 1015.91 1016.00 1016.15 1016.35 1016.59 1016.85 1017.12 1017.37 1017.59 1017.74 1017.82 1017.81 1017.72 1017.54 1017.29 1016.97 1016.60 1016.17 1015.70 1015.18 1014.61 1013.98 1013.28 1012.50 1011.65 1010.74 1009.77 1008.78 1007.80 1006.86 1006.01 1005.29 1004.73
1017.39 1017.20 1017.06 1016.97 1016.91 1016.87 1016.83 1016.79 1016.76 1016.73 1016.71 1016.72 1016.76 1016.83 1016.95 1017.10 1017.27 1017.44 1017.61 1017.75 1017.84 1017.88 1017.85 1017.75 1017.58 1017.35 1017.06 1016.71 1016.31 1015.86 1015.35 1014.77 1014.11 1013.37 1012.55 1011.63 1010.65 1009.62 1008.56 1007.53 1006.55 1005.68 1004.96 1004.42
1017.88 1017.75 1017.68 1017.65 1017.65 1017.66 1017.66 1017.65 1017.62 1017.59 1017.55 1017.51 1017.49 1017.49 1017.52 1017.57 1017.65 1017.73 1017.81 1017.87 1017.90 1017.90 1017.84 1017.74 1017.58 1017.37 1017.11 1016.80 1016.44 1016.02 1015.53 1014.97 1014.31 1013.57 1012.73 1011.80 1010.80 1009.75 1008.68 1007.63 1006.66 1005.80 1005.11 1004.60
1018.32 1018.26 1018.25 1018.29 1018.34 1018.39 1018.42 1018.43 1018.41 1018.37 1018.30 1018.23 1018.15 1018.09 1018.04 1018.00 1017.99 1017.98 1017.98 1017.97 1017.95 1017.90 1017.82 1017.71 1017.56 1017.37 1017.15 1016.88 1016.57 1016.19 1015.75 1015.23 1014.62 1013.91 1013.11 1012.21 1011.24 1010.23 1009.20 1008.20 1007.27 1006.46 1005.82 1005.35
1018.70 1018.70 1018.75 1018.83 1018.92 1019.01 1019.07 1019.09 1019.07 1019.02 1018.93 1018.83 1018.71 1018.59 1018.48 1018.38 1018.29 1018.21 1018.14 1018.07 1018.00 1017.92 1017.82 1017.70 1017.56 1017.40 1017.21 1016.99 1016.73 1016.41 1016.04 1015.58 1015.04 1014.41 1013.69 1012.88 1012.00 1011.07 1010.14 1009.23 1008.38 1007.65 1007.06 1006.65
1019.01 1019.06 1019.15 1019.27 1019.39 1019.49 1019.56 1019.59 1019.57 1019.51 1019.41 1019.28 1019.13 1018.98 1018.82 1018.67 1018.54 1018.41 1018.30 1018.19 1018.09 1017.98 1017.87 1017.75 1017.63 1017.49 1017.34 1017.16 1016.95 1016.70 1016.40 1016.03 1015.59 1015.07 1014.46 1013.78 1013.03 1012.23 1011.43 1010.64 1009.91 1009.27 1008.75 1008.39
1019.27 1019.35 1019.47 1019.61 1019.74 1019.84 1019.91 1019.93 1019.91 1019.83 1019.72 1019.58 1019.42 1019.24 1019.07 1018.90 1018.75 1018.60 1018.47 1018.34 1018.22 1018.10 1017.99 1017.88 1017.77 1017.65 1017.53 1017.40 1017.25 1017.07 1016.85 1016.58 1016.25 1015.85 1015.38 1014.84 1014.25 1013.62 1012.96 1012.31 1011.71 1011.16 1010.71 1010.38
Thickness
5684 5691 5691 5689 5688 5687 5683 5681 5676 5680 5681 5688 5690 5690 5690 5690 5690 5690 5690 5690 5690 5689 5689 5689 5689 5689 5689 5688 5688 5688 5687 5686 5686 5685 5685 5686 5685 5685 5685 5685 5685 5685 5685 5686
5675 5684 5683 5678 5682 5683 5682 5682 5680 5680 5679 5687 5687 5686 5684 5683 5683 5683 5683 5684 5683 5683 5683 5683 5683 5683 5683 5682 5682 5682 5681 5681 5681 5680 5680 5680 5681 5681 5681 5681 5681 5681 5681 5682
5657 5669 5672 5662 5672 5675 5675 5676 5676 5672 5676 5680 5678 5678 5677 5677 5677 5677 5677 5677 5677 5677 5676 5676 5676 5677 5676 5676 5676 5675 5674 5674 5674 5674 5674 5675 5675 5675 5676 5676 5676 5676 5677 5677
5644 5652 5643 5658 5672 5674 5670 5668 5669 5671 5672 5672 5673 5672 5672 5673 5671 5671 5671 5671 5671 5671 5670 5671 5671 5671 5671 5670 5669 5668 5668 5668 5669 5669 5669 5669 5669 5669 5670 5671 5671 5671 5672 5673
5628 5631 5638 5651 5659 5659 5657 5654 5659 5661 5662 5663 5665 5664 5663 5666 5666 5665 5665 5665 5665 5665 5665 5665 5665 5664 5663 5662 5661 5661 5661 5662 5663 5663 5663 5663 5663 5663 5664 5665 5666 5666 5667 5668
5621 5625 5625 5639 5650 5655 5651 5642 5651 5652 5652 5652 5654 5649 5652 5658 5658 5658 5658 5658 5658 5658 5658 5657 5658 5657 5656 5655 5654 5654 5655 5656 5657 5657 5658 5657 5657 5658 5659 5660 5661 5661 5662 5663
5611 5613 5620 5631 5639 5645 5632 5634 5643 5644 5644 5643 5643 5645 5648 5650 5650 5650 5650 5651 5651 5651 5650 5650 5650 5650 5648 5648 5648 5650 5650 5651 5651 5652 5652 5652 5652 5653 5653 5654 5655 5655 5656 5658
5599 5600 5608 5622 5626 5623 5622 5629 5633 5634 5635 5635 5636 5638 5640 5640 5641 5641 5641 5643 5643 5642 5641 5642 5642 5641 5641 5641 5643 5643 5644 5645 5645 5645 5646 5647 5646 5647 5648 5648 5649 5649 5649 5651
5594 5597 5604 5608 5611 5613 5615 5618 5622 5624 5627 5627 5627 5628 5629 5630 5631 5632 5633 5634 5635 5634 5633 5633 5633 5633 5633 5634 5636 5636 5635 5636 5637 5638 5638 5640 5640 5641 5641 5642 5643 5643 5643 5644
5587 5593 5597 5600 5603 5605 5608 5609 5613 5616 5617 5618 5618 5619 5620 5620 5620 5622 5624 5625 5625 5625 5624 5624 5625 5625 5625 5626 5627 5626 5626 5627 5629 5629 5630 5632 5634 5635 5635 5636 5637 5637 5638 5639
5578 5585 5589 5593 5594 5597 5600 5602 5603 5606 5608 5609 5610 5610 5610 5610 5611 5613 5614 5615 5616 5615 5615 5615 5616 5616 5617 5617 5618 5617 5618 5619 5621 5622 5623 5624 5626 5628 5630 5631 5633 5633 5635 5635
5571 5577 5577 5582 5586 5589 5590 5592 5594 5596 5599 5600 5601 5601 5601 5602 5602 5603 5604 5605 5605 5605 5606 5606 5607 5608 5608 5609 5609 5609 5609 5611 5613 5614 5616 5617 5619 5621 5624 5626 5627 5629 5630 5631
5570 5574 5574 5577 5579 5581 5582 5584 5586 5588 5590 5590 5592 5592 5592 5593 5594 5595 5595 5595 5596 5596 5597 5598 5598 5598 5600 5600 5600 5601 5602 5603 5605 5607 5608 5610 5612 5614 5616 5619 5621 5623 5625 5625
5567 5568 5568 5569 5571 5573 5574 5576 5578 5579 5580 5582 5583 5583 5584 5584 5585 5585 5586 5587 5587 5587 5588 5589 5590 5590 5591 5591 5591 5593 5594 5596 5597 5599 5601 5603 5605 5607 5609 5611 5614 5616 5618 5618
5563 5563 5562 5563 5563 5565 5567 5568 5569 5569 5570 5572 5574 5575 5576 5576 5576 5577 5579 5580 5580 5580 5581 5582 5583 5583 5585 5583 5583 5585 5587 5588 5590 5592 5594 5596 5598 5600 5602 5604 5606 5608 5610 5611
5556 5556 5556 5556 5556 5557 5557 5559 5559 5560 5562 5563 5565 5566 5568 5569 5569 5570 5571 5572 5572 5572 5573 5574 5574 5575 5575 5575 5575 5578 5580 5582 5583 5585 5587 5588 5590 5592 5594 5596 5598 5601 5603 5604
5547 5547 5548 5548 5548 5549 5549 5551 5553 5554 5555 5556 5557 5559 5560 5561 5561 5562 5563 5564 5564 5565 5565 5565 5566 5566 5567 5567 5568 5570 5572 5574 5575 5577 5578 5580 5581 5584 5586 5588 5590 5593 5595 5596
5544 5543 5543 5543 5543 5543 5544 5546 5547 5548 5548 5550 5551 5552 5552 5552 5553 5554 5555 5556 5557 5558 5558 5559 5559 5559 5560 5560 5561 5563 5565 5567 5568 5569 5570 5572 5574 5575 5577 5580 5582 5585 5587 5589
5537 5536 5537 5537 5538 5538 5539 5539 5540 5541 5542 5544 5545 5545 5545 5546 5546 5547 5548 5549 5549 5550 5552 5552 5552 5553 5553 5554 5555 5556 5558 5559 5560 5562 5563 5564 5566 5568 5570 5572 5574 5577 5579 5581
5530 5531 5531 5531 5532 5531 5531 5532 5533 5534 5535 5537 5537 5538 5538 5539 5539 5540 5541 5541 5542 5543 5545 5545 5545 5546 5547 5548 5549 5550 5551 5552 5553 5555 5556 5557 5559 5561 5563 5565 5567 5569 5571 5574
5524 5524 5524 5524 5524 5524 5524 5524 5525 5526 5527 5528 5529 5529 5530 5530 5531 5532 5533 5535 5537 5538 5538 5538 5539 5540 5540 5541 5542 5543 5543 5544 5546 5547 5549 5550 5551 5553 5555 5557 5559 5562 5564 5566
5517 5517 5517 5517 5517 5516 5516 5516 5517 5518 5519 5520 5521 5521 5522 5523 5524 5525 5526 5527 5530 5531 5531 5532 5532 5533 5533 5533 5534 5536 5536 5537 5538 5540 5541 5542 5544 5546 5547 5550 5552 5555 5557 5559
5511 5510 5510 5510 5509 5509 5509 5509 5510 5510 5511 5512 5512 5513 5515 5516 5516 5517 5519 5521 5523 5524 5525 5525 5525 5525 5525 5526 5527 5528 5529 5530 5530 5531 5533 5535 5536 5538 5540 5543 5545 5548 5550 5551
5505 5504 5504 5503 5503 5503 5502 5502 5502 5503 5504 5504 5505 5506 5508 5509 5510 5512 5513 5515 5516 5517 5518 5518 5518 5519 5518 5520 5520 5521 5522 5522 5523 5524 5525 5527 5528 5530 5533 5535 5537 5539 5541 5543
5500 5499 5498 5497 5496 5496 5495 5495 5495 5496 5497 5498 5499 5500 5502 5502 5503 5506 5508 5510 5510 5511 5512 5512 5512 5512 5513 5514 5514 5514 5514 5514 5515 5516 5517 5518 5520 5522 5523 5525 5528 5530 5532 5534
5494 5493 5492 5491 5490 5490 5489 5489 5489 5489 5490 5491 5493 5494 5495 5497 5498 5500 5502 5503 5504 5504 5505 5505 5506 5505 5506 5506 5506 5506 5507 5507 5507 5508 5508 5509 5511 5512 5514 5516 5519 5521 5523 5525
5490 5489 5487 5487 5486 5486 5485 5484 5484 5485 5485 5486 5487 5488 5489 5490 5492 5494 5496 5497 5497 5497 5498 5498 5498 5497 5497 5498 5498 5498 5499 5499 5500 5500 5500 5501 5503 5504 5506 5508 5510 5513 5515 5516